When you browse on this site, cookies collect data to enhance your experience and personalize the content and advertising you see.
Visit our Privacy Policy to learn more. By continuing to use the site, you agree to this use of cookies and data.
  • In Hungary
  • List of Countries
  • For 7 days
  • Water Temperature
  • Weather Map
  • News
  • Weather Widgets
  • user-avatar
    Login

    Hourly Weather Brest

    Today, 9 April, Thursday

    Time Temperature Precipitation Wind Pressure Humidity
    00:00 +10°C° 0 mm 1 mps 755 mmHg 57%
    01:00 +9°C° 0 mm 2 mps 755 mmHg 59%
    02:00 +8°C° 0 mm 2 mps 754 mmHg 60%
    03:00 +8°C° 0 mm 2 mps 754 mmHg 61%
    04:00 +7°C° 0 mm 2 mps 754 mmHg 62%
    05:00 +7°C° 0 mm 3 mps 753 mmHg 62%
    06:00 +8°C° 0 mm 3 mps 753 mmHg 60%
    07:00 +10°C° 0 mm 3 mps 752 mmHg 57%
    08:00 +11°C° 0 mm 4 mps 752 mmHg 54%
    09:00 +13°C° 0 mm 4 mps 752 mmHg 50%
    10:00 +15°C° 0 mm 5 mps 751 mmHg 46%
    11:00 +19°C° 0 mm 6 mps 751 mmHg 42%
    12:00 +19°C° 0 mm 6 mps 750 mmHg 38%
    13:00 +20°C° 0 mm 6 mps 750 mmHg 34%
    14:00 +21°C° 0 mm 7 mps 749 mmHg 31%
    15:00 +21°C° 0 mm 6 mps 749 mmHg 34%
    16:00 +20°C° 0 mm 6 mps 749 mmHg 38%
    17:00 +20°C° 0 mm 6 mps 749 mmHg 41%
    18:00 +17°C° 0.3 mm 5 mps 749 mmHg 50%
    19:00 +15°C° 0.3 mm 5 mps 749 mmHg 58%
    20:00 +12°C° 0.3 mm 5 mps 749 mmHg 67%
    21:00 +11°C° 0 mm 4 mps 750 mmHg 70%
    22:00 +10°C° 0 mm 4 mps 750 mmHg 72%
    23:00 +7°C° 0 mm 4 mps 751 mmHg 75%

    Tomorrow, 10 April, Friday

    Time Temperature Precipitation Wind Pressure Humidity
    00:00 +7°C° 0 mm 4 mps 751 mmHg 78%
    01:00 +6°C° 0 mm 4 mps 751 mmHg 80%
    02:00 +5°C° 0 mm 4 mps 752 mmHg 83%
    03:00 +4°C° 0 mm 4 mps 752 mmHg 85%
    04:00 +4°C° 0 mm 3 mps 752 mmHg 86%
    05:00 +3°C° 0 mm 3 mps 753 mmHg 88%
    06:00 +4°C° 0 mm 3 mps 753 mmHg 82%
    07:00 +4°C° 0 mm 3 mps 754 mmHg 76%
    08:00 +5°C° 0 mm 3 mps 754 mmHg 71%
    09:00 +6°C° 0 mm 4 mps 754 mmHg 60%
    10:00 +8°C° 0 mm 4 mps 755 mmHg 49%
    11:00 +10°C° 0 mm 4 mps 755 mmHg 38%
    12:00 +10°C° 0 mm 4 mps 755 mmHg 37%
    13:00 +11°C° 0 mm 4 mps 755 mmHg 36%
    14:00 +12°C° 0 mm 4 mps 755 mmHg 35%
    15:00 +12°C° 0 mm 4 mps 754 mmHg 38%
    16:00 +11°C° 0 mm 4 mps 754 mmHg 41%
    17:00 +11°C° 0 mm 4 mps 753 mmHg 44%
    18:00 +10°C° 0 mm 3 mps 753 mmHg 49%
    19:00 +9°C° 0 mm 2 mps 754 mmHg 55%
    20:00 +9°C° 0 mm 1 mps 754 mmHg 60%
    21:00 +7°C° 0 mm 2 mps 754 mmHg 62%
    22:00 +6°C° 0 mm 2 mps 754 mmHg 65%
    23:00 +6°C° 0 mm 2 mps 754 mmHg 67%

    Day after tomorrow, 11 April, Saturday

    Time Temperature Precipitation Wind Pressure Humidity
    00:00 +5°C° 0 mm 2 mps 754 mmHg 65%
    01:00 +5°C° 0 mm 2 mps 754 mmHg 64%
    02:00 +4°C° 0 mm 2 mps 754 mmHg 62%
    03:00 +4°C° 0 mm 2 mps 754 mmHg 62%
    04:00 +3°C° 0 mm 2 mps 755 mmHg 62%
    05:00 +2°C° 0 mm 2 mps 755 mmHg 62%
    06:00 +3°C° 0 mm 2 mps 755 mmHg 61%
    07:00 +4°C° 0 mm 2 mps 755 mmHg 60%
    08:00 +5°C° 0 mm 2 mps 756 mmHg 59%
    09:00 +6°C° 0 mm 2 mps 756 mmHg 53%
    10:00 +8°C° 0 mm 3 mps 757 mmHg 47%
    11:00 +9°C° 0 mm 3 mps 757 mmHg 41%
    12:00 +10°C° 0 mm 2 mps 757 mmHg 37%
    13:00 +12°C° 0 mm 2 mps 757 mmHg 33%
    14:00 +12°C° 0 mm 2 mps 757 mmHg 29%
    15:00 +12°C° 0 mm 2 mps 757 mmHg 29%
    16:00 +12°C° 0 mm 2 mps 757 mmHg 29%
    17:00 +12°C° 0 mm 2 mps 756 mmHg 29%
    18:00 +10°C° 0 mm 2 mps 757 mmHg 32%
    19:00 +8°C° 0 mm 2 mps 757 mmHg 36%
    20:00 +8°C° 0 mm 1 mps 757 mmHg 40%
    21:00 +6°C° 0 mm 2 mps 757 mmHg 41%
    22:00 +6°C° 0 mm 2 mps 757 mmHg 43%
    23:00 +5°C° 0 mm 2 mps 758 mmHg 44%

    12 April, Sunday

    Time Temperature Precipitation Wind Pressure Humidity
    00:00 +5°C° 0 mm 2 mps 757 mmHg 46%
    01:00 +4°C° 0 mm 2 mps 757 mmHg 48%
    02:00 +4°C° 0 mm 2 mps 757 mmHg 49%
    03:00 +3°C° 0 mm 2 mps 757 mmHg 51%
    04:00 +3°C° 0 mm 2 mps 757 mmHg 52%
    05:00 +1°C° 0 mm 3 mps 756 mmHg 53%
    06:00 +3°C° 0 mm 3 mps 756 mmHg 51%
    07:00 +4°C° 0 mm 4 mps 756 mmHg 49%
    08:00 +5°C° 0 mm 4 mps 756 mmHg 46%
    09:00 +7°C° 0 mm 4 mps 756 mmHg 44%
    10:00 +8°C° 0 mm 4 mps 755 mmHg 42%
    11:00 +10°C° 0 mm 5 mps 755 mmHg 40%
    12:00 +12°C° 0 mm 5 mps 754 mmHg 39%
    13:00 +12°C° 0 mm 4 mps 754 mmHg 38%
    14:00 +13°C° 0 mm 4 mps 753 mmHg 37%
    15:00 +13°C° 0 mm 4 mps 753 mmHg 38%
    16:00 +13°C° 0 mm 4 mps 752 mmHg 39%
    17:00 +13°C° 0 mm 4 mps 751 mmHg 40%
    18:00 +12°C° 0 mm 3 mps 751 mmHg 46%
    19:00 +11°C° 0 mm 3 mps 750 mmHg 51%
    20:00 +9°C° 0 mm 3 mps 750 mmHg 56%
    21:00 +9°C° 0 mm 3 mps 749 mmHg 59%
    22:00 +8°C° 0 mm 3 mps 749 mmHg 63%
    23:00 +8°C° 0 mm 3 mps 749 mmHg 66%

    13 April, Monday

    Time Temperature Precipitation Wind Pressure Humidity
    00:00 +7°C° 0 mm 3 mps 748 mmHg 67%
    01:00 +7°C° 0 mm 3 mps 748 mmHg 68%
    02:00 +7°C° 0 mm 3 mps 747 mmHg 69%
    03:00 +7°C° 0 mm 3 mps 747 mmHg 73%
    04:00 +7°C° 0 mm 3 mps 746 mmHg 77%
    05:00 +7°C° 0 mm 3 mps 746 mmHg 81%
    06:00 +7°C° 0 mm 4 mps 746 mmHg 77%
    07:00 +10°C° 0 mm 4 mps 745 mmHg 73%
    08:00 +10°C° 0 mm 5 mps 745 mmHg 69%
    09:00 +13°C° 0 mm 5 mps 745 mmHg 63%
    10:00 +15°C° 0 mm 6 mps 744 mmHg 57%
    11:00 +17°C° 0 mm 6 mps 744 mmHg 51%
    12:00 +17°C° 0.1 mm 7 mps 743 mmHg 50%
    13:00 +17°C° 0.1 mm 7 mps 742 mmHg 49%
    14:00 +18°C° 0.1 mm 8 mps 742 mmHg 48%
    15:00 +17°C° 0.2 mm 7 mps 741 mmHg 50%
    16:00 +17°C° 0.2 mm 7 mps 740 mmHg 53%
    17:00 +17°C° 0.2 mm 6 mps 740 mmHg 55%
    18:00 +15°C° 0.6 mm 7 mps 740 mmHg 65%
    19:00 +12°C° 0.6 mm 7 mps 740 mmHg 75%
    20:00 +10°C° 0.6 mm 8 mps 740 mmHg 84%
    21:00 +6°C° 0.7 mm 8 mps 741 mmHg 84%
    22:00 +3°C° 0.7 mm 9 mps 742 mmHg 83%
    23:00 +1°C° 0.7 mm 9 mps 742 mmHg 82%

    14 April, Tuesday

    Time Temperature Precipitation Wind Pressure Humidity
    00:00 0°C° 0 mm 9 mps 744 mmHg 78%
    01:00 -1°C° 0 mm 9 mps 745 mmHg 74%
    02:00 -2°C° 0 mm 8 mps 746 mmHg 71%
    03:00 -4°C° 0 mm 8 mps 747 mmHg 67%
    04:00 -5°C° 0 mm 8 mps 748 mmHg 64%
    05:00 -6°C° 0 mm 7 mps 749 mmHg 61%
    06:00 -5°C° 0 mm 8 mps 750 mmHg 56%
    07:00 -5°C° 0 mm 8 mps 750 mmHg 52%
    08:00 -4°C° 0 mm 9 mps 751 mmHg 47%
    09:00 -3°C° 0 mm 9 mps 751 mmHg 43%
    10:00 -1°C° 0 mm 9 mps 752 mmHg 38%
    11:00 0°C° 0 mm 8 mps 752 mmHg 34%
    12:00 +1°C° 0 mm 8 mps 752 mmHg 35%
    13:00 +2°C° 0 mm 8 mps 752 mmHg 37%
    14:00 +4°C° 0 mm 8 mps 753 mmHg 38%
    15:00 +4°C° 0 mm 8 mps 753 mmHg 39%
    16:00 +4°C° 0 mm 7 mps 753 mmHg 41%
    17:00 +4°C° 0 mm 7 mps 753 mmHg 43%
    18:00 +3°C° 0 mm 6 mps 753 mmHg 48%
    19:00 +2°C° 0 mm 5 mps 753 mmHg 53%
    20:00 +1°C° 0 mm 4 mps 753 mmHg 58%
    21:00 0°C° 0 mm 4 mps 754 mmHg 60%
    22:00 0°C° 0 mm 3 mps 754 mmHg 63%
    23:00 -1°C° 0 mm 3 mps 754 mmHg 66%
    Show more